This demonstration page uses our WeatherBlox Daily Observations layout. Learn more.

Left ArrowRight Arrow

Hourly Observations for October 29, 2020

Temp ( °F °C ) Dew Point ( °F °C ) Humidity (%) Winds ( mph kmh ) Pressure ( in mb ) Visibility ( mi km ) Precip ( " mm )
12:15 am 00:15 Cloudy 48 9 48 9 100 100 NE 5 7 29.91 1013 4 6 N/A
12:36 am 00:36 Cloudy 48 9 48 9 100 100 NE 5 7 29.89 1012 4 6 N/A
12:55 am 00:55 Cloudy 48 9 48 9 100 100 NE 5 7 29.87 1012 5 8 N/A
1:15 am 01:15 Mostly Cloudy 48 9 48 9 100 100 NNE 6 9 29.86 1011 5 8 N/A
1:35 am 01:35 Cloudy 48 9 48 9 100 100 N 8 13 29.85 1011 4 6 N/A
1:55 am 01:55 Cloudy 48 9 48 9 100 100 N 8 13 29.85 1011 4 6 N/A
2:15 am 02:15 Cloudy 48 9 48 9 100 100 NNE 5 7 29.85 1011 4 6 N/A
2:35 am 02:35 Cloudy 48 9 48 9 100 100 NNE 7 11 29.84 1011 3 5 N/A
2:55 am 02:55 Cloudy 48 9 48 9 100 100 NNE 6 9 29.83 1010 3 4 N/A
3:15 am 03:15 Cloudy 48 9 48 9 100 100 N 8 13 29.82 1010 3 4 N/A
3:35 am 03:35 Cloudy 48 9 48 9 100 100 N 8 13 29.82 1010 3 5 N/A
3:55 am 03:55 Cloudy 48 9 48 9 100 100 N 9 15 29.80 1009 4 6 N/A
4:15 am 04:15 Cloudy 48 9 48 9 100 100 N 12 19 29.80 1009 4 6 N/A
4:35 am 04:35 Cloudy 48 9 48 9 100 100 N 13 20 29.78 1009 5 8 N/A
4:55 am 04:55 Cloudy 48 9 48 9 100 100 N 14 22 29.77 1008 4 6 N/A
5:15 am 05:15 Cloudy 46 8 46 8 100 100 N 17 28 29.77 1008 3 5 N/A
5:35 am 05:35 Cloudy 46 8 46 8 100 100 N 15 24 29.76 1008 5 8 N/A
5:55 am 05:55 Cloudy 46 8 46 8 100 100 N 16 26 29.76 1008 4 6 N/A
6:15 am 06:15 Cloudy 46 8 46 8 100 100 NNE 12 19 29.76 1008 4 6 N/A
6:35 am 06:35 Cloudy 46 8 46 8 100 100 NNE 14 22 29.75 1007 4 6 N/A
6:55 am 06:55 Cloudy 46 8 46 8 100 100 N 17 28 29.75 1007 4 6 N/A
7:15 am 07:15 Cloudy 46 8 46 8 100 100 NNE 21 33 29.74 1007 5 8 N/A
7:35 am 07:35 Cloudy 45 7 45 7 100 100 NNE 15 24 29.74 1007 4 6 N/A
7:55 am 07:55 Cloudy 45 7 45 7 100 100 NNE 18 30 29.74 1007 5 8 N/A
8:15 am 08:15 Cloudy 43 6 43 6 100 100 NNE 21 33 29.74 1007 7 11 N/A
8:35 am 08:35 Cloudy 43 6 43 6 100 100 NNE 17 28 29.72 1007 5 8 N/A
8:55 am 08:55 Cloudy 43 6 43 6 100 100 NNE 13 20 29.74 1007 5 8 N/A
9:15 am 09:15 Cloudy 43 6 43 6 100 100 N 14 22 29.74 1007 4 6 N/A
9:35 am 09:35 Cloudy 43 6 43 6 100 100 N 16 26 29.74 1007 4 6 N/A
9:55 am 09:55 Cloudy 43 6 43 6 100 100 NNE 16 26 29.73 1007 5 8 N/A
10:15 am 10:15 Cloudy 43 6 43 6 100 100 NNE 14 22 29.75 1008 5 8 N/A
10:35 am 10:35 Cloudy 45 7 45 7 100 100 N 13 20 29.75 1007 5 8 N/A
10:55 am 10:55 Cloudy 45 7 45 7 100 100 N 12 19 29.74 1007 5 8 N/A
11:15 am 11:15 Cloudy 45 7 45 7 100 100 N 16 26 29.73 1007 7 11 N/A
11:35 am 11:35 Cloudy 43 6 43 6 100 100 N 13 20 29.75 1008 7 11 N/A
11:55 am 11:55 Cloudy 43 6 43 6 100 100 NNE 16 26 29.74 1007 10 16 N/A
12:15 pm 12:15 Cloudy 45 7 45 7 100 100 N 15 24 29.75 1007 7 11 N/A
12:35 pm 12:35 Cloudy 43 6 43 6 100 100 N 17 28 29.74 1007 10 16 N/A
12:55 pm 12:55 Cloudy 45 7 45 7 100 100 NNE 13 20 29.74 1007 10 16 N/A
1:15 pm 13:15 Cloudy 45 7 45 7 100 100 NNE 12 19 29.74 1007 10 16 N/A
1:35 pm 13:35 Cloudy 45 7 45 7 100 100 N 12 19 29.73 1007 10 16 N/A
1:55 pm 13:55 Cloudy 45 7 45 7 100 100 N 13 20 29.73 1007 10 16 N/A
2:15 pm 14:15 Cloudy 45 7 45 7 100 100 N 14 22 29.73 1007 10 16 N/A
2:35 pm 14:35 Cloudy 45 7 45 7 100 100 N 14 22 29.75 1007 10 16 N/A
2:55 pm 14:55 Cloudy 45 7 45 7 100 100 N 16 26 29.74 1007 10 16 N/A
3:15 pm 15:15 Cloudy 45 7 45 7 100 100 N 16 26 29.74 1007 10 16 N/A
3:35 pm 15:35 Cloudy 45 7 45 7 100 100 N 13 20 29.75 1007 10 16 N/A
3:55 pm 15:55 Cloudy 46 8 46 8 100 100 N 14 22 29.74 1007 10 16 N/A
4:15 pm 16:15 Cloudy 46 8 45 7 93 93 N 15 24 29.75 1007 10 16 N/A
4:35 pm 16:35 Cloudy 45 7 45 7 100 100 N 13 20 29.76 1008 10 16 N/A
4:55 pm 16:55 Cloudy 45 7 45 7 100 100 N 14 22 29.78 1008 10 16 N/A
5:15 pm 17:15 Cloudy 45 7 45 7 100 100 N 12 19 29.79 1009 10 16 N/A
5:35 pm 17:35 Cloudy 45 7 45 7 100 100 N 9 15 29.80 1009 7 11 N/A
5:55 pm 17:55 Cloudy 45 7 45 7 100 100 N 8 13 29.78 1008 10 16 N/A
6:15 pm 18:15 Cloudy 45 7 45 7 100 100 N 9 15 29.79 1009 10 16 N/A
6:35 pm 18:35 Cloudy 45 7 45 7 100 100 N 10 17 29.80 1009 10 16 N/A
6:55 pm 18:55 Cloudy 45 7 45 7 100 100 N 7 11 29.81 1009 7 11 N/A
7:15 pm 19:15 Cloudy 45 7 45 7 100 100 N 8 13 29.81 1009 10 16 N/A
7:35 pm 19:35 Cloudy 45 7 45 7 100 100 N 6 9 29.82 1010 10 16 N/A
7:55 pm 19:55 Mostly Cloudy 45 7 45 7 100 100 N 16 26 29.84 1011 10 16 N/A
8:15 pm 20:15 Mostly Cloudy 45 7 45 7 100 100 N 15 24 29.86 1011 10 16 N/A
8:35 pm 20:35 Mostly Cloudy 45 7 45 7 100 100 N 14 22 29.87 1012 10 16 N/A
8:55 pm 20:55 Partly Cloudy 43 6 43 6 100 100 N 16 26 29.89 1012 10 16 N/A
9:15 pm 21:15 Mostly Cloudy 43 6 43 6 100 100 N 15 24 29.89 1012 10 16 N/A
9:35 pm 21:35 Cloudy 43 6 43 6 100 100 N 14 22 29.91 1013 10 16 N/A
9:55 pm 21:55 Cloudy 43 6 43 6 100 100 N 14 22 29.91 1013 10 16 N/A
10:15 pm 22:15 Cloudy 43 6 43 6 100 100 NNW 13 20 29.92 1013 10 16 N/A
10:35 pm 22:35 Cloudy 43 6 43 6 100 100 N 15 24 29.94 1014 10 16 N/A
10:55 pm 22:55 Cloudy 43 6 43 6 100 100 N 15 24 29.95 1014 10 16 N/A
11:15 pm 23:15 Cloudy 43 6 43 6 100 100 N 13 20 29.96 1015 10 16 N/A
11:35 pm 23:35 Cloudy 43 6 43 6 100 100 N 15 24 29.98 1015 10 16 N/A
11:55 pm 23:55 Cloudy 43 6 43 6 100 100 NNW 14 22 29.99 1016 10 16 N/A

Powered by AerisWeather